TIME,DELAY(SENSOR),PRES,T(CTD),SAL,OXYGEN,RAWTEMP,T(OPTODE),TCPHASE,FLUOR,BETA(BETA700),BETA(BETA412),BETA(BETA440),CDOM,C(CSC),ED(ED412.40),ED(ED444.00),ED(ED489.70),ED(ED554.30),LU(LU411.80),LU(LU443.40),LU(LU489.60),LU(LU554.10),COMP,TILTX,TILTX(TILTY),CHECK
1356557866,5810,497.8200073242187500,6.0534000396728520,34.1621017456054700,59.8931617736816400,617.0332031250000000,6.0326309204101560,51.6500816345214840,52,103,88,79,80,15162,2147747684,2147423478,2148006107,2147875053,2147630582,2147076544,2148251547,2147198756,1058,3,13,50273
1356558005,5811,486.2699890136719000,6.1140999794006350,34.1580009460449200,63.1964607238769500,614.6381835937500000,6.1103649139404300,51.1879882812500000,52,104,90,81,79,15163,2147750061,2147427245,2148006198,2147872768,2147633883,2147069714,2148252160,2147198473,1456,4,13,30081
1356558146,5808,475.3900146484375000,6.3280000686645510,34.1389007568359400,67.2035827636718800,608.6870727539062000,6.3032817840576170,50.5910110473632800,52,103,87,80,80,15160,2147748205,2147423890,2148007515,2147872886,2147633810,2147075264,2148250468,2147199552,1735,4,13,58086
1356558285,5806,465.0700073242187500,6.3983001708984375,34.1301994323730500,73.3695526123046900,605.8989257812500000,6.3935427665710450,49.7858314514160160,52,104,86,80,79,15161,2147749376,2147422848,2148004452,2147875172,2147631460,2147076059,2148247853,2147202377,1384,4,13,46959
1356558434,5809,451.9599914550781000,6.7365999221801760,34.1225013732910160,79.1436462402343800,596.2617797851562000,6.7049598693847660,48.9567413330078100,53,104,88,79,79,15161,2147747300,2147423168,2148005476,2147874459,2147633142,2147069622,2148247990,2147199085,285,4,12,11209
1356558537,5808,441.1700134277344000,6.9008002281188965,34.1260986328125000,83.6867065429687500,590.4796752929688000,6.8913779258728030,48.3396492004394500,51,104,90,79,80,15160,2147751414,2147422363,2148003876,2147872722,2147633490,2147075638,2148243072,2147199085,2953,4,13,6548
1356558640,5811,430.3500061035156000,7.2157001495361330,34.1184005737304700,89.2845001220703100,580.7138061523438000,7.2055377960205080,47.5561408996582000,52,105,88,79,78,15157,2147748086,2147421156,2148004827,2147873600,2147632256,2147077988,2148243136,2147201408,3317,3,13,45209
1356558759,5812,420.0100097656250000,7.3800997734069820,34.1236000061035160,95.9892730712890600,575.7944946289062000,7.3634610176086430,46.7416114807128900,51,104,87,81,78,15161,2147747126,2147419574,2147999744,2147871424,2147630198,2147078473,2148241234,2147199168,2917,4,13,34158
1356558922,5810,408.9500122070312500,7.4953999519348145,34.1246986389160160,100.0101013183593800,571.8652954101562000,7.4894409179687500,46.2502288818359400,52,106,86,80,77,15159,2147748416,2147421412,2148005129,2147874624,2147630345,2147080731,2148239323,2147199826,2742,4,13,58382
1356559079,5806,396.8500061035156000,7.6241998672485350,34.1204986572265600,103.9192962646484400,567.8999023437500000,7.6164460182189940,45.7787590026855500,51,104,86,80,77,15158,2147740928,2147424950,2148005120,2147873517,2147626587,2147081398,2148234486,2147202057,1339,4,13,63194
1356559194,5807,386.4500122070312500,7.8352999687194820,34.1100997924804700,111.7867965698242200,561.5183715820312000,7.8205451965332030,44.8743400573730500,51,107,91,79,76,15160,2147740763,2147424667,2148001654,2147873590,2147628672,2147085504,2148233517,2147198098,1013,4,13,16981
1356559323,5806,375.0299987792969000,7.9642000198364260,34.1101989746093750,117.9018020629882800,557.3336181640625000,7.9542012214660645,44.2063407897949200,51,105,86,80,75,15159,2147742683,2147425837,2148000740,2147870720,2147623716,2147083520,2148237705,2147198464,798,4,13,61257
1356559450,5807,364.0100097656250000,8.1190004348754880,34.1109008789062500,122.5544967651367200,552.7905273437500000,8.0991325378417970,43.6861305236816400,50,106,86,79,76,15160,2147741750,2147424374,2148003556,2147870500,2147623716,2147083949,2148240749,2147199131,804,4,13,19541
1356559577,5808,353.0199890136719000,8.3547000885009770,34.1022987365722660,132.2326965332031200,544.4185180664062000,8.3657627105712890,42.6569709777832000,50,107,91,80,76,15156,2147740909,2147423058,2147999844,2147871853,2147624374,2147087040,2148233910,2147201435,559,4,13,17592
1356559706,5807,342.1400146484375000,8.5451002120971680,34.0933990478515600,141.5236968994140600,539.4655151367188000,8.5232353210449220,41.7621803283691400,50,105,91,79,76,15160,2147745188,2147424731,2148003684,2147873792,2147623094,2147092809,2148232521,2147203200,133,4,13,49922
1356559833,5807,332.0000000000000000,8.8013000488281250,34.0998992919921900,147.5462951660156200,531.3952026367188000,8.7793998718261720,41.1181411743164060,50,105,88,81,74,15161,2147737508,2147426276,2148005110,2147871725,2147622345,2147087241,2148228891,2147200283,2486,4,14,48981
1356559986,5809,321.0000000000000000,9.2209997177124020,34.1016998291015600,158.8495025634765600,518.1276245117188000,9.1994438171386720,39.9865684509277340,49,106,86,79,73,15157,2147739136,2147423259,2148004946,2147872859,2147620022,2147089124,2148230692,2147202633,2504,4,13,24624
1356560149,5808,310.3999938964844000,9.7526998519897460,34.1088981628418000,172.3260040283203000,500.7055969238281000,9.7490406036376950,38.6814804077148440,50,109,84,79,73,15158,2147738377,2147424393,2148007954,2147871405,2147619035,2147093558,2148226880,2147197933,2937,4,13,44724
1356560308,5811,298.0499877929687500,10.1862001419067380,34.1161994934082000,181.6343994140625000,486.6542968750000000,10.1907501220703120,37.7913703918457000,49,106,90,80,73,15157,2147735424,2147425014,2148009910,2147872466,2147614162,2147105344,2148226669,2147202413,2509,4,13,37221
1356560423,5811,286.8599853515625000,10.5812997817993160,34.1242980957031250,190.8206939697265600,474.8826904296875000,10.5597896575927730,36.9828910827636700,49,106,85,80,71,15156,2147735771,2147427922,2148014857,2147873069,2147610806,2147104448,2148226057,2147203081,2725,4,13,64552
1356560538,5807,276.5400085449219000,11.1396999359130860,34.1399993896484400,196.3065032958984400,456.0638122558594000,11.1479701995849610,36.3207893371582000,48,105,90,81,71,15157,2147733668,2147430043,2148025216,2147874569,2147611008,2147106166,2148229988,2147202093,2638,4,14,64524
1356560679,5809,265.6799926757812500,11.7548999786376950,34.1604003906250000,199.5213928222656200,436.9486083984375000,11.7432899475097660,35.8109092712402340,48,104,86,80,70,15156,2147731565,2147430454,2148026916,2147874459,2147608475,2147117613,2148229092,2147203273,502,3,14,42691
1356560842,5809,254.4700012207031200,12.3468999862670900,34.1837997436523440,201.6481018066406200,417.6156921386719000,12.3434200286865230,35.3711585998535160,48,105,85,80,71,15155,2147729170,2147438418,2148043949,2147872914,2147602212,2147120292,2148229878,2147206454,2467,3,13,45437
1356560978,5813,242.3899993896484400,12.9072999954223630,34.2132987976074200,204.0462951660156200,399.6931152343750000,12.8981399536132810,34.9449996948242200,49,105,89,81,68,15153,2147728576,2147443757,2148073316,2147872073,2147599826,2147131282,2148244726,2147207323,1700,4,13,25269
1356561081,5810,231.7400054931640600,13.4372997283935550,34.2484016418457000,206.8441925048828000,381.4999084472656000,13.4597997665405270,34.4976501464843750,49,106,89,81,68,15153,2147727488,2147454710,2148094262,2147871643,2147598985,2147139638,2148252452,2147212489,1752,3,15,51584
1356561196,5806,220.9499969482422000,14.6111001968383790,34.3529014587402340,208.0637054443359400,344.7659912109375000,14.5900697708129880,33.8692398071289060,49,103,90,80,67,15153,2147722843,2147463826,2148125668,2147872329,2147592667,2147148653,2148263963,2147209417,2027,3,13,15154
1356561325,5803,210.1799926757812500,15.7027997970581050,34.4743003845214840,209.3177947998047000,309.7943115234375000,15.6623697280883790,33.2797393798828100,49,103,87,81,67,15151,2147730057,2147502180,2148230710,2147874148,2147591771,2147176137,2148304173,2147213302,843,3,14,56667
1356561464,5803,199.7200012207031200,16.4804000854492200,34.5727005004882800,212.5325012207031200,283.7679138183594000,16.4587001800537100,32.7227783203125000,49,103,88,80,66,15149,2147728859,2147530541,2148292059,2147874139,2147587026,2147203638,2148328740,2147219373,2346,3,14,5909
1356561519,5810,195.7700042724609400,16.6317005157470700,34.5890998840332000,212.4300994873047000,278.5002136230469000,16.6197395324707030,32.6530494689941400,50,104,87,80,65,15150,2147733942,2147547419,2148332873,2147873280,2147589129,2147216429,2148347190,2147218706,1560,3,14,37782
1356561594,5806,190.6300048828125000,17.0449008941650400,34.6366996765136700,210.3524017333984400,263.6647033691406000,17.0731201171875000,32.5572586059570300,50,106,86,80,64,15147,2147740525,2147578486,2148404918,2147874395,2147589275,2147234185,2148379693,2147225993,1628,3,14,37420
1356561649,5806,187.8999938964843800,17.5235996246337900,34.6967010498046900,209.9924011230468800,248.9405975341797000,17.5228996276855470,32.3693313598632800,50,102,85,79,65,15146,2147742400,2147604333,2148468781,2147868443,2147587721,2147251556,2148408713,2147223588,619,2,15,22258
1356561728,5810,184.9600067138672000,17.7933998107910160,34.7365989685058600,210.4243011474609400,240.6712951660156200,17.7754497528076170,32.2289199829101560,50,103,87,80,64,15145,2147747291,2147614656,2148483986,2147871213,2147590628,2147263067,2148416118,2147227209,24,3,14,7830
1356561843,5807,181.1499938964843800,18.3462009429931640,34.8179016113281250,210.7635955810547000,221.7790069580078000,18.3523902893066400,31.9468708038330080,50,102,86,81,64,15140,2147744676,2147591844,2148399085,2147874523,2147584585,2147254994,2148375268,2147224338,3378,2,15,62013
1356561996,5806,176.9700012207031200,18.6189994812011720,34.8662986755371100,213.3538055419922000,213.1896057128906200,18.6147098541259770,31.6871604919433600,51,104,85,80,64,15144,2147752676,2147631890,2148490697,2147872850,2147587638,2147287872,2148419446,2147228836,1968,3,15,4687
1356562111,5807,172.7299957275390600,18.8651008605957030,34.9025993347168000,213.9627990722656200,206.1923980712890600,18.8284206390380860,31.5583305358886720,50,103,87,79,64,15139,2147772854,2147714788,2148676342,2147871113,2147596635,2147337865,2148502262,2147236333,2228,2,15,14503
1356562222,5806,168.2500000000000000,19.4083995819091800,34.9780006408691400,214.0471038818359400,187.6269989013672000,19.3956298828125000,31.3008403778076170,50,101,88,79,64,15142,2147777408,2147716242,2148664557,2147874203,2147597677,2147339483,2148494372,2147234304,3153,2,15,31319
1356562301,5809,164.6900024414062500,19.8766002655029300,35.0462989807128900,215.7729034423828000,173.1587066650390600,19.8379096984863280,31.0135097503662100,53,103,89,79,63,15140,2147806473,2147827629,2148917302,2147874770,2147609069,2147411821,2148617901,2147243958,2688,2,16,47973
1356562416,5809,160.9600067138672000,20.1446990966796880,35.0876007080078100,217.7310943603515600,163.7830047607422000,20.1246795654296880,30.7852306365966800,54,104,88,80,63,15132,2147795995,2147758125,2148731291,2147873737,2147601334,2147369453,2148527506,2147239798,3247,2,15,40148
1356562555,5809,156.5299987792968800,20.6014995574951170,35.1458015441894500,219.2575988769531200,148.9031982421875000,20.5800991058349600,30.5083408355712900,59,108,91,80,63,15122,2147841014,2147902025,2149051072,2147876306,2147624594,2147460800,2148676443,2147246701,3530,2,15,58817
1356562646,5807,152.5700073242187500,20.5559997558593750,35.0942001342773440,214.7794952392578000,149.7474060058593800,20.5542507171630860,30.7531108856201170,62,107,88,81,64,15122,2147838107,2147851318,2148889097,2147875200,2147615104,2147433398,2148599012,2147244032,129,2,15,257
1356562725,5808,148.6699981689453000,20.7061004638671880,35.1167984008789060,213.1864929199218800,146.4727935791015600,20.6545295715332030,30.7938098907470700,69,112,89,80,64,15115,2147887341,2147969554,2149128374,2147878646,2147638189,2147499483,2148708178,2147252461,357,2,15,4608
1356562804,5810,144.7299957275390600,20.7395000457763670,35.1152000427246100,213.8470001220703000,143.7987976074218800,20.7364292144775400,30.7230796813964840,67,109,89,80,63,15112,2147916324,2148011629,2149171968,2147878043,2147648182,2147520603,2148723172,2147251885,1011,2,15,34908
1356562885,5804,140.5500030517578000,20.8073997497558600,35.1254005432128900,214.3208007812500000,141.5767059326172000,20.8045005798339840,30.6685295104980470,69,108,85,82,64,15115,2147967616,2148097746,2149314752,2147879972,2147667675,2147566089,2148788434,2147258752,525,2,15,52439
1356562964,5809,136.5700073242187500,21.0708007812500000,35.1659011840820300,217.8813934326172000,132.7210998535156200,21.0759105682373050,30.3655490875244140,82,116,90,81,63,15094,2148091154,2148352822,2149809307,2147883090,2147721206,2147699510,2149009956,2147273417,656,2,15,61837
1356563055,5811,133.1999969482422000,21.3922004699707030,35.1908988952636700,221.9761962890625000,123.0033035278320300,21.3739604949951170,30.0294990539550780,95,118,88,82,62,15088,2148279003,2148724352,2150487771,2147890029,2147788992,2147886820,2149295908,2147300489,470,2,15,18247
1356563196,5809,129.3500061035156200,21.6609992980957030,35.2029991149902340,223.8358001708984400,114.7498016357421900,21.6273002624511720,29.8290805816650400,100,119,91,81,62,15078,2148505856,2149124882,2151185993,2147901979,2147880640,2148081819,2149580288,2147325257,1597,2,16,24851
1356563359,5807,125.2500000000000000,21.8491001129150400,35.2136001586914060,224.5401000976562500,108.1028976440429700,21.8314704895019530,29.7078895568847660,108,121,87,82,63,15064,2148588580,2149145069,2151086793,2147903405,2147907721,2148073115,2149512109,2147320109,2912,2,15,32423
1356563510,5810,120.9000015258789000,21.9330005645751950,35.2177009582519500,224.5274047851562500,104.9937973022461000,21.9270191192626950,29.6682891845703120,103,122,89,83,61,15060,2148664027,2149126281,2150894546,2147906825,2147932123,2148044525,2149387510,2147315245,2895,2,15,10310
1356563601,5810,116.6900024414062500,22.0069999694824220,35.2172012329101560,224.3722991943359400,102.5129013061523400,22.0032901763916000,29.6438808441162100,106,123,92,83,63,15051,2149005147,2149590363,2151599826,2147922230,2148058651,2148252909,2149664402,2147337618,3004,2,16,9540
1356563692,5808,112.9700012207031200,22.1634006500244140,35.2239990234375000,225.0102996826172000,97.5443572998046900,22.1560897827148440,29.5486106872558600,118,123,89,83,62,15051,2149724480,2150649344,2153301312,2147948982,2148337206,2148734290,2150343881,2147398921,2805,2,16,59453
1356563807,5809,108.5899963378906200,22.2826004028320300,35.2260017395019500,226.2503967285156200,93.4586029052734400,22.2817993164062500,29.4353504180908200,115,121,87,81,62,15045,2149507062,2149994825,2151898624,2147934345,2148241609,2148383140,2149716260,2147354523,2450,1,16,15329
1356563886,5810,104.7399978637695300,22.3405990600585940,35.2268981933593750,227.1235961914062500,91.3770828247070300,22.3458690643310550,29.3659095764160160,120,122,92,82,63,15040,2151098313,2152108141,2155088630,2147996032,2148821229,2149284315,2150906907,2147465801,2329,2,16,61542
1356563977,5812,100.2900009155273400,22.6012992858886720,35.2252006530761700,227.7131958007812500,83.2379226684570300,22.5965404510498050,29.2332305908203120,128,123,90,83,62,15035,2151911561,2152803748,2155762477,2148021339,2149132964,2149586806,2151202989,2147493668,3020,1,16,56930
1356564032,5809,98.0299987792968800,22.6532993316650400,35.2260017395019500,228.5121002197265600,81.6100692749023400,22.6466999053955080,29.1742000579834000,134,122,91,83,61,15030,2153143872,2154189211,2157579090,2148064027,2149565284,2150138176,2151840621,2147563373,2910,2,16,18749
1356564089,5807,95.5400009155273400,22.7730007171630860,35.2235984802246100,228.7371063232422000,77.7862167358398400,22.7645797729492200,29.1145191192626950,133,122,90,83,61,15024,2155511689,2156984265,2161440978,2148154998,2150438326,2151309330,2153310390,2147707108,2678,2,16,56215
1356564144,5808,93.2200012207031200,23.1399993896484380,35.2238998413085940,229.3675994873047000,68.4814529418945300,23.0516490936279300,28.9662704467773440,140,121,90,83,61,15024,2157554587,2159207981,2164221074,2148242002,2151150985,2152179474,2154291556,2147810898,3065,2,16,50224
1356564199,5809,91.4499969482421900,23.2306995391845700,35.2304992675781250,231.0167999267578000,62.6985092163085940,23.2302494049072270,28.8148708343505860,142,121,89,82,61,15013,2156725814,2157893531,2161964772,2148197650,2150852900,2151607424,2153431003,2147738258,3090,2,16,16070
1356564254,5807,90.1999969482421900,23.7320003509521500,35.2723007202148440,231.9127960205078000,48.1591796875000000,23.6799106597900400,28.5895805358886720,140,120,87,84,64,15022,2155737920,2156520009,2159809828,2148159414,2150524361,2151047405,2152632704,2147666834,130,1,16,26419
1356564452,5808,88.8899993896484400,24.4785003662109380,35.2921981811523440,233.4223022460937500,23.7905006408691400,24.4358291625976560,28.2149696350097660,118,120,89,84,60,15038,2156959277,2157888320,2161542409,2148204507,2151131264,2151751177,2153394980,2147745078,820,1,16,63014
1356564915,5806,86.1999969482421900,24.6912002563476560,35.2986984252929700,235.7431945800781200,15.9186496734619140,24.6806697845459000,28.0108890533447270,86,116,90,84,57,15039,2157280822,2158003840,2161237979,2148236361,2152353042,2152691913,2153919670,2147786944,606,1,16,64517
1356565029,5808,83.2799987792968800,24.6923007965087900,35.2976989746093750,236.0489959716797000,15.7045497894287110,24.6873302459716800,27.9943199157714840,84,115,90,83,57,15041,2166815771,2169495113,2176837961,2148772681,2158175972,2159396388,2161155520,2148480822,3224,1,16,42187
1356565084,5810,80.8700027465820300,24.7036991119384770,35.2962989807128900,236.1060943603515600,15.3126296997070310,24.6995296478271500,27.9870090484619140,85,117,89,84,56,15039,2166606994,2168854592,2175370084,2148778422,2158978221,2159943433,2161418075,2148494592,3128,2,16,27613
1356565139,5809,78.2699966430664000,24.7049999237060550,35.2963981628418000,236.3603973388672000,15.2284498214721680,24.7021503448486330,27.9743003845214840,84,117,90,84,55,15032,2170067940,2173032000,2180667904,2149042788,2161732105,2162846765,2164299282,2148777938,2819,1,16,46374
1356565194,5808,75.4599990844726600,24.7052993774414060,35.2966995239257800,236.5679931640625000,15.2068099975585940,24.7028293609619140,27.9646606445312500,84,117,90,83,58,15031,2169817234,2172448868,2179155126,2149150729,2162019675,2162686180,2163623597,2148741138,2588,1,16,47954
1356565249,5808,72.5500030517578100,24.7056999206542970,35.2965011596679700,236.6396026611328000,15.2021903991699220,24.7029705047607420,27.9612598419189450,84,117,91,84,56,15027,2174802413,2178301440,2186341074,2149570697,2166124416,2167068315,2167963611,2149170441,2470,1,16,47585
1356565304,5806,69.6200027465820300,24.7052001953125000,35.2966995239257800,236.6410064697265600,15.1937303543090820,24.7032299041748050,27.9610004425048830,83,118,90,84,57,15023,2180484150,2184973814,2194400704,2150244928,2170680091,2171841453,2172535414,2149679945,2358,2,16,8454
1356565361,5807,66.6399993896484400,24.7063007354736330,35.2958984375000000,236.8545074462890600,15.1991395950317380,24.7030601501464840,27.9514694213867200,81,116,89,83,57,15025,2173262363,2175676114,2181332946,2149742244,2166066870,2166095844,2166011300,2149058953,2284,2,16,4702
1356565416,5805,63.7799987792968750,24.7068004608154300,35.2957992553710940,236.9393005371093800,15.1751403808593750,24.7038097381591800,27.9474296569824220,80,117,89,83,58,15025,2178473124,2181615158,2188226550,2150345261,2170217883,2170395145,2170012297,2149515154,2379,1,16,16546
1356565471,5807,60.9300003051757800,24.7070999145507800,35.2962989807128900,237.0043029785156200,15.1309900283813480,24.7051792144775400,27.9438800811767580,80,116,92,83,56,15015,2191324397,2196890340,2206992429,2151916141,2180350957,2181289142,2180648192,2150674916,2440,1,16,26489
1356565526,5809,58.0499992370605500,24.7077999114990230,35.2960014343261700,237.2332000732422000,15.0943002700805660,24.7063293457031250,27.9331207275390620,78,117,91,84,57,15014,2194808576,2200395355,2210310500,2152676672,2183263067,2183881033,2182582820,2151001051,2570,1,16,17837
1356565581,5817,55.1300010681152340,24.7070007324218750,35.2966003417968750,237.2469024658203000,15.0615501403808600,24.7073497772216800,27.9320793151855470,76,118,91,84,59,15012,2201428260,2207757632,2218498898,2154083300,2187960356,2188630610,2186690706,2151605321,2700,1,16,60931
1356565636,5806,52.1800003051757800,24.7108001708984380,35.2961997985839840,237.3764038085937500,14.9413700103759770,24.7110900878906250,27.9247608184814450,72,119,91,85,59,15012,2207087606,2213933266,2225117101,2155485165,2193312429,2193870445,2191058843,2152287314,2764,1,16,63358
1356565693,5817,49.0900001525878900,24.7166996002197270,35.2974014282226560,237.4983062744140600,14.7086801528930660,24.7183303833007800,27.9162902832031250,70,118,89,82,57,15009,2214917385,2222593289,2234331437,2157426194,2199651474,2200045961,2196027593,2153100827,2678,1,16,1954
1356565748,5812,46.0900001525878900,24.7250995635986330,35.2976989746093750,237.4125061035156200,14.4543504714965820,24.7262496948242200,27.9170398712158200,69,117,92,83,57,15010,2221930870,2230207122,2242013778,2159710665,2206385974,2206471506,2201249782,2154044873,2446,1,16,52251
1356565803,5809,43.1100006103515600,24.7341995239257800,35.2988014221191400,237.5384063720703000,14.1755399703979500,24.7349300384521500,27.9079799652099600,68,119,92,85,59,15008,2229458706,2238118765,2249816466,2162631506,2215011638,2215122121,2208135186,2155325449,2326,1,16,26619
1356565858,5809,40.0400009155273440,24.7430992126464840,35.3003997802734400,237.6096954345703000,13.9242601394653320,24.7427501678466800,27.9016399383544920,66,117,93,82,57,15007,2241376978,2251819044,2265061604,2167441837,2223724251,2223435721,2214749376,2156890934,2151,1,17,18868
1356565913,5809,36.9399986267089840,24.7479000091552730,35.3008995056152340,237.6376037597656200,13.7726097106933600,24.7474708557128900,27.8984794616699220,63,117,90,85,58,15010,2251140480,2261504978,2273973403,2172170258,2235250733,2234721270,2223399890,2158653083,1938,1,16,23290
1356565968,5807,33.7799987792968750,24.7514991760253900,35.3009986877441400,237.6213073730468800,13.6870403289794920,24.7501392364501950,27.8983306884765620,63,118,90,86,58,15005,2260463990,2271502436,2284447762,2177212178,2247080685,2245935497,2231971730,2160714651,1872,1,17,37084
1356566025,5815,30.4400005340576170,24.7670993804931640,35.3031997680664060,237.6835937500000000,13.1760301589965820,24.7660503387451170,27.8891792297363280,61,117,88,84,54,15006,2280188946,2293522386,2308634075,2189678390,2261241152,2259495195,2242287277,2163531382,1797,1,15,6480
1356566080,5810,27.1800003051757800,24.7828006744384770,35.3053016662597660,237.5634002685547000,12.6340398788452150,24.7829303741455080,27.8878192901611330,59,114,89,82,55,15009,2293675401,2307738898,2323693120,2198371977,2275297728,2272580672,2252185170,2166684406,2142,1,16,4027
1356566135,5805,23.9300003051757800,24.7896995544433600,35.3064994812011700,237.4190979003906200,12.0460100173950200,24.8012409210205080,27.8870601654052730,58,114,90,83,59,15015,2299870244,2311365641,2326387510,2209457938,2287643638,2283639917,2260493805,2170069421,2508,2,15,60031
